DAL6606 VABB-KATL

Flight info

Callsign DAL6606
Flight time N/A
Altitude 34000
Route ALBAP2B ISRIS G208 APANO G451 AAE Z8 VIKIT P628 RK G202 ZB L750 RANAH B449 MARAD/N0493F360 B449 DUKAN L850 ADEKI N644 ROLIN UN644 INB/N0479F380 UL746 ODERO T86 MATEL T746 ARGES DCT ENIMA DCT EVRIK DCT EPARI DCT LANUX DCT RAPET T843 DEMAB L604 RELBI L602 RKN L980 TENLI L602 LEGRO/N0486F400 L602 NALAX L46 GETNO DCT SUROX DCT DEVOL DCT BEXET DCT DOGAL/M085F400 DCT 5520N DCT 5630N DCT 5640N DCT 5550N DCT LOMSI/N0482F400 N674A ANATI Q850 VIVIL/N0491F430 Q850 TOXAL DCT KB84C DCT CAM Q133 BIZEX Q75 GVE Q34 MAULS DCT FLASK OZZZI2
Aircraft A359/H-SDE2E3GHIJ3J4J5LM1ORWXY/LB1D1

Departure

Time 2026-04-27 02:38
Airport Chhatrapati Shivaji Maharaj International Airport (VABB)

Arrival

Time N/A
Airport Hartsfield Jackson Atlanta International Airport (KATL)
Time Latitude Longitude Altitude Speed Heading
2026-04-27 02:08 19.09411 72.87636 52 ft 0 kts 11°
2026-04-27 02:29 19.09409 72.87636 55 ft 3 kts 11°
2026-04-27 02:29 19.09383 72.87629 52 ft 4 kts 18°
2026-04-27 02:30 19.09358 72.87619 47 ft 4 kts 30°
2026-04-27 02:30 19.09338 72.87602 47 ft 4 kts 63°
2026-04-27 02:30 19.09335 72.87585 47 ft 1 kts 131°
2026-04-27 02:32 19.09329 72.87592 47 ft 5 kts 130°
2026-04-27 02:33 19.09310 72.87616 49 ft 0 kts 130°
2026-04-27 02:34 19.09291 72.87639 48 ft 9 kts 130°
2026-04-27 02:34 19.09239 72.87672 48 ft 9 kts 170°
2026-04-27 02:34 19.09171 72.87678 51 ft 9 kts 156°
2026-04-27 02:34 19.09144 72.87754 54 ft 13 kts 101°
2026-04-27 02:35 19.09081 72.87808 49 ft 12 kts 150°
2026-04-27 02:35 19.09057 72.87884 49 ft 12 kts 88°
2026-04-27 02:35 19.09059 72.87973 53 ft 12 kts 89°
2026-04-27 02:35 19.09034 72.88047 50 ft 10 kts 154°
2026-04-27 02:36 19.09012 72.88051 46 ft 0 kts 176°
2026-04-27 02:36 19.08975 72.88052 48 ft 10 kts 180°
2026-04-27 02:36 19.08897 72.88031 48 ft 11 kts 227°
2026-04-27 02:37 19.08888 72.87965 52 ft 13 kts 268°
2026-04-27 02:37 19.08883 72.87664 48 ft 77 kts 269°
2026-04-27 02:37 19.08872 72.86850 53 ft 143 kts 269°
2026-04-27 02:37 19.08856 72.85590 134 ft 192 kts 267°
2026-04-27 02:38 19.08856 72.84183 883 ft 190 kts 269°
2026-04-27 02:38 19.08851 72.82783 1620 ft 193 kts 268°
2026-04-27 02:38 19.08829 72.81324 1833 ft 206 kts 269°
2026-04-27 02:38 19.08800 72.79753 2012 ft 220 kts 270°
2026-04-27 02:39 19.08776 72.78074 2162 ft 237 kts 272°
2026-04-27 02:39 19.09157 72.76344 2284 ft 250 kts 302°
2026-04-27 02:39 19.10429 72.75133 2615 ft 251 kts 338°
2026-04-27 02:39 19.12138 72.74813 3193 ft 248 kts 356°
2026-04-27 02:40 19.13835 72.74749 3693 ft 248 kts 357°
2026-04-27 02:40 19.15568 72.74690 4175 ft 250 kts 356°
2026-04-27 02:40 19.17312 72.74616 4644 ft 251 kts 356°
2026-04-27 02:40 19.19066 72.74531 5080 ft 254 kts 356°
2026-04-27 02:41 19.20850 72.74439 5487 ft 258 kts 356°
2026-04-27 02:41 19.22657 72.74342 5876 ft 262 kts 356°
2026-04-27 02:41 19.24491 72.74242 6296 ft 265 kts 356°
2026-04-27 02:41 19.26344 72.74140 6714 ft 268 kts 356°
2026-04-27 02:42 19.28215 72.74036 7095 ft 271 kts 356°
2026-04-27 02:42 19.30112 72.73993 7529 ft 275 kts
2026-04-27 02:42 19.32029 72.74206 7912 ft 279 kts
2026-04-27 02:42 19.33964 72.74503 8342 ft 283 kts
2026-04-27 02:43 19.35930 72.74812 8763 ft 286 kts
2026-04-27 02:43 19.37906 72.75120 9225 ft 289 kts
2026-04-27 02:43 19.39911 72.75431 9698 ft 292 kts
2026-04-27 02:43 19.41944 72.75744 10012 ft 301 kts
2026-04-27 02:44 19.44056 72.76069 10187 ft 314 kts
2026-04-27 02:44 19.46263 72.76408 10353 ft 327 kts
2026-04-27 02:44 19.48557 72.76761 10534 ft 339 kts
2026-04-27 02:44 19.50934 72.77126 10702 ft 351 kts
2026-04-27 02:45 19.53393 72.77505 10871 ft 362 kts
2026-04-27 02:45 19.55922 72.77894 11039 ft 373 kts
2026-04-27 02:45 19.58528 72.78295 11184 ft 383 kts
2026-04-27 02:45 19.61187 72.78705 11331 ft 392 kts
2026-04-27 02:46 19.63922 72.79126 11515 ft 400 kts
2026-04-27 02:46 19.66695 72.79554 11733 ft 406 kts
2026-04-27 02:46 19.69503 72.79986 12077 ft 408 kts
2026-04-27 02:46 19.72319 72.80420 12429 ft 411 kts
2026-04-27 02:47 19.75157 72.80858 12757 ft 414 kts
2026-04-27 02:47 19.77977 72.81293 13112 ft 416 kts
2026-04-27 02:47 19.80859 72.81738 13417 ft 420 kts
2026-04-27 02:47 19.83766 72.82187 13753 ft 422 kts
2026-04-27 02:48 19.86684 72.82638 14100 ft 423 kts
2026-04-27 02:48 19.89603 72.83088 14439 ft 425 kts
2026-04-27 02:48 19.92543 72.83542 14776 ft 426 kts
2026-04-27 02:48 19.95481 72.83996 15132 ft 427 kts
2026-04-27 02:49 19.98430 72.84453 15422 ft 430 kts
2026-04-27 02:49 20.01400 72.84912 15742 ft 431 kts
2026-04-27 02:49 20.04334 72.85367 16090 ft 432 kts
2026-04-27 02:49 20.07356 72.85835 16365 ft 435 kts
2026-04-27 02:50 20.10316 72.86284 16705 ft 435 kts
2026-04-27 02:50 20.13331 72.86669 17073 ft 435 kts
2026-04-27 02:50 20.16346 72.87038 17388 ft 436 kts
2026-04-27 02:50 20.18352 72.87286 17570 ft 438 kts
2026-04-27 02:51 20.21374 72.87663 17927 ft 437 kts
2026-04-27 02:51 20.24400 72.88046 18232 ft 438 kts
2026-04-27 02:51 20.27434 72.88431 18444 ft 441 kts
2026-04-27 02:51 20.30488 72.88820 18698 ft 442 kts
2026-04-27 02:52 20.33549 72.89211 18951 ft 443 kts
2026-04-27 02:52 20.36630 72.89606 19154 ft 446 kts
2026-04-27 02:52 20.39721 72.90001 19375 ft 448 kts
2026-04-27 02:52 20.42789 72.90394 19621 ft 450 kts
2026-04-27 02:53 20.45906 72.90793 19829 ft 452 kts
2026-04-27 02:53 20.49037 72.91195 20050 ft 454 kts
2026-04-27 02:53 20.52184 72.91599 20293 ft 456 kts
2026-04-27 02:53 20.55337 72.92004 20528 ft 457 kts
2026-04-27 02:54 20.58510 72.92412 20755 ft 459 kts
2026-04-27 02:54 20.61693 72.92821 21007 ft 461 kts
2026-04-27 02:54 20.64883 72.93231 21319 ft 462 kts
2026-04-27 02:54 20.68074 72.93642 21539 ft 464 kts
2026-04-27 02:55 20.71290 72.94055 21779 ft 466 kts
2026-04-27 02:55 20.74518 72.94471 22050 ft 468 kts
2026-04-27 02:55 20.77717 72.94867 22296 ft 470 kts
2026-04-27 02:55 20.80983 72.95088 22532 ft 471 kts
2026-04-27 02:56 20.84266 72.95177 22753 ft 473 kts 359°
2026-04-27 02:56 20.87606 72.95223 22996 ft 475 kts 359°
2026-04-27 02:56 20.90922 72.95272 23240 ft 477 kts 359°
2026-04-27 02:56 20.94215 72.95342 23468 ft 479 kts 360°
2026-04-27 02:57 20.97545 72.95434 23753 ft 478 kts
2026-04-27 02:57 21.00877 72.95543 23942 ft 481 kts
2026-04-27 02:57 21.04229 72.95663 24133 ft 483 kts
2026-04-27 02:57 21.07592 72.95788 24340 ft 484 kts
2026-04-27 02:58 21.10963 72.95914 24561 ft 486 kts
2026-04-27 02:58 21.14355 72.96041 24787 ft 488 kts
2026-04-27 02:58 21.17754 72.96168 25019 ft 490 kts
2026-04-27 02:58 21.21167 72.96305 25256 ft 492 kts
2026-04-27 02:59 21.24595 72.96475 25498 ft 494 kts
2026-04-27 02:59 21.28037 72.96661 25745 ft 496 kts
2026-04-27 02:59 21.31499 72.96853 25995 ft 498 kts
2026-04-27 02:59 21.34968 72.97043 26250 ft 500 kts
2026-04-27 03:00 21.38460 72.97232 26502 ft 502 kts
2026-04-27 03:00 21.41963 72.97418 26741 ft 505 kts
2026-04-27 03:00 21.45476 72.97602 26986 ft 507 kts
2026-04-27 03:00 21.49013 72.97787 27219 ft 509 kts
2026-04-27 03:01 21.52554 72.97972 27449 ft 511 kts
2026-04-27 03:01 21.56069 72.98101 27692 ft 511 kts 356°
2026-04-27 03:01 21.59610 72.97810 27997 ft 509 kts 349°
2026-04-27 03:01 21.63094 72.97159 28289 ft 509 kts 347°
2026-04-27 03:02 21.66574 72.96406 28485 ft 511 kts 346°
2026-04-27 03:02 21.70057 72.95594 28687 ft 512 kts 346°
2026-04-27 03:02 21.73535 72.94759 29015 ft 511 kts 346°
2026-04-27 03:02 21.76998 72.93922 29399 ft 509 kts 346°
2026-04-27 03:03 21.80458 72.93088 29703 ft 509 kts 346°
2026-04-27 03:03 21.87376 72.91432 30214 ft 509 kts 345°
2026-04-27 03:03 21.90788 72.90619 30452 ft 508 kts 346°
2026-04-27 03:04 21.94239 72.89800 30697 ft 507 kts 346°
2026-04-27 03:04 21.97695 72.88981 30942 ft 507 kts 346°
2026-04-27 03:04 22.01142 72.88165 31185 ft 506 kts 346°
2026-04-27 03:04 22.04583 72.87349 31394 ft 506 kts 346°
2026-04-27 03:05 22.08025 72.86532 31633 ft 505 kts 346°
2026-04-27 03:05 22.11417 72.85726 31865 ft 505 kts 345°
2026-04-27 03:05 22.14841 72.84912 32085 ft 504 kts 345°
2026-04-27 03:05 22.18267 72.84097 32302 ft 504 kts 345°
2026-04-27 03:06 22.21689 72.83283 32580 ft 502 kts 346°
2026-04-27 03:06 22.25090 72.82474 32843 ft 500 kts 346°
2026-04-27 03:06 22.28496 72.81663 33044 ft 500 kts 345°
2026-04-27 03:06 22.31892 72.80853 33223 ft 499 kts 345°
2026-04-27 03:07 22.35285 72.80044 33419 ft 499 kts 345°
2026-04-27 03:07 22.38679 72.79234 33610 ft 498 kts 345°
2026-04-27 03:07 22.42073 72.78424 33754 ft 499 kts 345°
2026-04-27 03:08 22.48896 72.76792 33785 ft 504 kts 346°
2026-04-27 03:08 22.55742 72.75156 33777 ft 504 kts 346°
2026-04-27 03:09 22.62544 72.73529 33778 ft 503 kts 346°
2026-04-27 03:09 22.69388 72.71889 33774 ft 503 kts 346°
2026-04-27 03:10 22.76221 72.70250 33776 ft 503 kts 346°
2026-04-27 03:10 22.83074 72.68604 33788 ft 503 kts 346°
2026-04-27 03:11 22.89915 72.66960 33793 ft 503 kts 346°
2026-04-27 03:11 22.93677 72.66055 33793 ft 503 kts 346°
2026-04-27 03:12 22.98038 72.65005 33800 ft 503 kts 346°
2026-04-27 03:12 23.04885 72.63356 33799 ft 503 kts 346°
2026-04-27 03:13 23.11742 72.61747 33808 ft 504 kts 347°
2026-04-27 03:13 23.18588 72.60257 33802 ft 505 kts 348°
2026-04-27 03:14 23.25485 72.58763 33775 ft 505 kts 348°
2026-04-27 03:14 23.32369 72.57253 33783 ft 505 kts 347°
2026-04-27 03:15 23.39257 72.55730 33784 ft 505 kts 348°
2026-04-27 03:15 23.46129 72.54207 33789 ft 503 kts 347°
2026-04-27 03:16 23.52998 72.52684 33789 ft 503 kts 347°
2026-04-27 03:16 23.59868 72.51160 33789 ft 503 kts 348°
2026-04-27 03:17 23.66740 72.49633 33791 ft 503 kts 348°
2026-04-27 03:17 23.73563 72.48115 33792 ft 501 kts 348°
2026-04-27 03:18 23.80388 72.46595 33797 ft 500 kts 348°
2026-04-27 03:18 23.87218 72.45073 33804 ft 501 kts 348°
2026-04-27 03:19 23.94038 72.43551 33803 ft 501 kts 348°
2026-04-27 03:19 24.00881 72.42023 33807 ft 500 kts 348°
2026-04-27 03:20 24.07689 72.40511 33811 ft 499 kts 348°
2026-04-27 03:20 24.14500 72.39007 33801 ft 498 kts 348°
2026-04-27 03:21 24.21255 72.37513 33803 ft 499 kts 348°
2026-04-27 03:21 24.28066 72.36005 33809 ft 498 kts 348°
2026-04-27 03:22 24.34869 72.34495 33809 ft 498 kts 348°
2026-04-27 03:22 24.41670 72.32984 33814 ft 498 kts 348°
2026-04-27 03:23 24.48471 72.31472 33811 ft 498 kts 348°
2026-04-27 03:23 24.55269 72.29958 33815 ft 499 kts 348°
2026-04-27 03:24 24.62072 72.28442 33816 ft 497 kts 348°
2026-04-27 03:24 24.68807 72.26940 33812 ft 497 kts 348°
2026-04-27 03:25 24.75591 72.25424 33803 ft 497 kts 348°
2026-04-27 03:25 24.82372 72.23913 33806 ft 498 kts 347°
2026-04-27 03:26 24.89167 72.22405 33811 ft 498 kts 348°
2026-04-27 03:26 24.95978 72.20894 33801 ft 499 kts 348°
2026-04-27 03:27 25.02842 72.19703 33800 ft 500 kts 352°
2026-04-27 03:27 25.09757 72.18870 33794 ft 500 kts 353°
2026-04-27 03:28 25.16691 72.18090 33796 ft 500 kts 353°
2026-04-27 03:28 25.23616 72.17314 33787 ft 500 kts 353°
2026-04-27 03:29 25.30499 72.16534 33780 ft 500 kts 353°
2026-04-27 03:29 25.37420 72.15746 33780 ft 500 kts 353°
2026-04-27 03:30 25.44343 72.14954 33776 ft 500 kts 353°
2026-04-27 03:30 25.51269 72.14163 33774 ft 500 kts 353°
2026-04-27 03:31 25.58187 72.13371 33771 ft 500 kts 353°
2026-04-27 03:31 25.65110 72.12578 33768 ft 500 kts 353°
2026-04-27 03:32 25.72033 72.11790 33769 ft 500 kts 353°
2026-04-27 03:32 25.78951 72.11015 33762 ft 499 kts 353°
2026-04-27 03:33 25.85876 72.10238 33760 ft 499 kts 353°
2026-04-27 03:33 25.92748 72.09466 33758 ft 499 kts 353°
2026-04-27 03:34 25.99660 72.08688 33755 ft 499 kts 353°
2026-04-27 03:34 26.06585 72.07908 33754 ft 499 kts 352°
2026-04-27 03:35 26.13487 72.07129 33753 ft 498 kts 352°
2026-04-27 03:35 26.19224 72.06481 33751 ft 498 kts 352°
2026-04-27 03:36 26.26131 72.05700 33751 ft 498 kts 352°
2026-04-27 03:36 26.33033 72.04918 33755 ft 498 kts 352°
2026-04-27 03:37 26.39958 72.04132 33748 ft 501 kts 352°
2026-04-27 03:37 26.46857 72.03349 33748 ft 501 kts 352°
2026-04-27 03:38 26.53808 72.02559 33744 ft 501 kts 352°
2026-04-27 03:38 26.60752 72.01769 33745 ft 501 kts 352°
2026-04-27 03:39 26.67715 72.00975 33743 ft 505 kts 352°
2026-04-27 03:39 26.74720 72.00176 33742 ft 506 kts 352°
2026-04-27 03:40 26.81690 71.99380 33744 ft 506 kts 352°
2026-04-27 03:40 26.87074 71.98765 33743 ft 505 kts 352°
2026-04-27 03:41 26.94077 71.97964 33741 ft 504 kts 351°
2026-04-27 03:41 27.01043 71.97167 33739 ft 502 kts 351°
2026-04-27 03:42 27.08002 71.96367 33729 ft 502 kts 351°
2026-04-27 03:42 27.14951 71.95568 33737 ft 502 kts 351°
2026-04-27 03:43 27.21906 71.94768 33731 ft 502 kts 351°
2026-04-27 03:43 27.28865 71.93967 33721 ft 502 kts 351°
2026-04-27 03:44 27.35774 71.93170 33724 ft 502 kts 351°
2026-04-27 03:44 27.42725 71.92367 33726 ft 502 kts 351°
2026-04-27 03:45 27.49685 71.91563 33717 ft 501 kts 351°
2026-04-27 03:45 27.56564 71.90490 33717 ft 496 kts 342°
2026-04-27 03:46 27.62877 71.87523 33716 ft 489 kts 324°
2026-04-27 03:46 27.67906 71.82489 33713 ft 482 kts 305°
2026-04-27 03:47 27.71418 71.76098 33712 ft 479 kts 296°
2026-04-27 03:47 27.74525 71.69452 33714 ft 479 kts 295°
2026-04-27 03:48 27.77576 71.62823 33711 ft 479 kts 295°
2026-04-27 03:48 27.80672 71.56166 33715 ft 479 kts 296°
2026-04-27 03:49 27.83789 71.49503 33711 ft 480 kts 295°
2026-04-27 03:49 27.86913 71.42826 33708 ft 481 kts 295°
2026-04-27 03:50 27.89955 71.36098 33708 ft 480 kts 294°
2026-04-27 03:50 27.92869 71.29305 33707 ft 480 kts 294°
2026-04-27 03:51 27.95781 71.22522 33707 ft 479 kts 294°
2026-04-27 03:51 27.98712 71.15746 33706 ft 479 kts 294°
2026-04-27 03:52 28.01644 71.08984 33704 ft 479 kts 294°
2026-04-27 03:52 28.04575 71.02215 33706 ft 479 kts 294°
2026-04-27 03:53 28.07483 70.95486 33708 ft 479 kts 294°
2026-04-27 03:53 28.10407 70.88709 33704 ft 479 kts 294°
2026-04-27 03:54 28.13327 70.81927 33703 ft 478 kts 294°
2026-04-27 03:54 28.16239 70.75153 33707 ft 477 kts 294°
2026-04-27 03:55 28.19143 70.68386 33698 ft 477 kts 294°
2026-04-27 03:55 28.22044 70.61613 33695 ft 477 kts 294°
2026-04-27 03:56 28.24939 70.54845 33700 ft 477 kts 294°
2026-04-27 03:56 28.27831 70.48073 33696 ft 476 kts 294°
2026-04-27 03:57 28.30713 70.41312 33694 ft 476 kts 294°
2026-04-27 03:57 28.33775 70.34705 33694 ft 478 kts 301°
2026-04-27 03:58 28.38235 70.29075 33690 ft 485 kts 319°
2026-04-27 03:58 28.44142 70.25320 33692 ft 493 kts 338°
2026-04-27 03:59 28.50775 70.23206 33690 ft 497 kts 342°
2026-04-27 03:59 28.57512 70.21364 33689 ft 498 kts 343°
2026-04-27 04:00 28.64242 70.19524 33701 ft 497 kts 343°
2026-04-27 04:00 28.70971 70.17641 33699 ft 498 kts 342°
2026-04-27 04:01 28.77706 70.15733 33698 ft 498 kts 342°
2026-04-27 04:01 28.84430 70.13822 33697 ft 498 kts 342°
2026-04-27 04:02 28.91153 70.11911 33706 ft 498 kts 342°
2026-04-27 04:02 28.94479 70.10964 33564 ft 498 kts 342°
2026-04-27 04:02 28.97848 70.10006 33687 ft 498 kts 342°
2026-04-27 04:03 29.04571 70.08090 33703 ft 498 kts 342°
2026-04-27 04:03 29.11293 70.06173 33716 ft 498 kts 342°
2026-04-27 04:04 29.18018 70.04253 33717 ft 498 kts 342°
2026-04-27 04:04 29.24743 70.02329 33727 ft 498 kts 342°
2026-04-27 04:05 29.31477 70.00400 33731 ft 498 kts 342°
2026-04-27 04:05 29.38201 69.98472 33730 ft 498 kts 342°
2026-04-27 04:06 29.44888 69.96551 33741 ft 497 kts 342°
2026-04-27 04:06 29.51583 69.94627 33741 ft 495 kts 342°
2026-04-27 04:07 29.61610 69.91738 33769 ft 496 kts 342°
2026-04-27 04:07 29.68301 69.89805 33766 ft 495 kts 342°
2026-04-27 04:08 29.74947 69.87885 33780 ft 495 kts 342°
2026-04-27 04:08 29.81671 69.85940 33780 ft 495 kts 342°
2026-04-27 04:09 29.88338 69.84007 33797 ft 498 kts 342°
2026-04-27 04:09 29.95058 69.82056 33817 ft 498 kts 341°
2026-04-27 04:10 30.01807 69.80094 33807 ft 501 kts 341°
2026-04-27 04:10 30.08583 69.78124 33834 ft 502 kts 341°
2026-04-27 04:11 30.15359 69.76152 33844 ft 502 kts 341°
2026-04-27 04:11 30.22126 69.74180 33842 ft 501 kts 341°
2026-04-27 04:12 30.28852 69.72276 33848 ft 500 kts 343°
2026-04-27 04:12 30.35679 69.70631 33847 ft 501 kts 344°
2026-04-27 04:13 30.42525 69.69023 33849 ft 501 kts 343°
2026-04-27 04:13 30.49373 69.67368 33849 ft 504 kts 343°
2026-04-27 04:14 30.56273 69.65672 33869 ft 507 kts 343°
2026-04-27 04:14 30.63138 69.63980 33870 ft 507 kts 343°
2026-04-27 04:15 30.70040 69.62278 33903 ft 507 kts 343°
2026-04-27 04:15 30.76948 69.60575 33879 ft 507 kts 342°
2026-04-27 04:16 30.83858 69.58866 33878 ft 507 kts 342°
2026-04-27 04:16 30.90766 69.57155 33885 ft 507 kts 342°
2026-04-27 04:17 30.97675 69.55443 33888 ft 507 kts 342°
2026-04-27 04:17 31.04597 69.53723 33886 ft 509 kts 342°
2026-04-27 04:18 31.11529 69.52000 33889 ft 510 kts 343°
2026-04-27 04:18 31.18493 69.50265 33889 ft 512 kts 343°
2026-04-27 04:19 31.25432 69.48534 33887 ft 512 kts 342°
2026-04-27 04:19 31.32231 69.46251 33887 ft 501 kts 330°
2026-04-27 04:20 31.37105 69.42814 33883 ft 487 kts 314°
2026-04-27 04:20 31.41697 69.37145 33893 ft 477 kts 304°
2026-04-27 04:21 31.45831 69.31071 33895 ft 475 kts 303°
2026-04-27 04:21 31.49871 69.25003 33905 ft 471 kts 303°
2026-04-27 04:22 31.53927 69.18946 33901 ft 471 kts 303°
2026-04-27 04:22 31.57977 69.12930 33900 ft 468 kts 304°
2026-04-27 04:23 31.62001 69.06939 33921 ft 467 kts 304°
2026-04-27 04:23 31.66026 69.00955 33909 ft 467 kts 304°
2026-04-27 04:24 31.70108 68.95048 33937 ft 465 kts 306°
2026-04-27 04:24 31.74294 68.89267 33920 ft 465 kts 306°
2026-04-27 04:25 31.78488 68.83467 33943 ft 466 kts 306°
2026-04-27 04:25 31.82642 68.77665 33930 ft 467 kts 305°
2026-04-27 04:26 31.86811 68.71808 33956 ft 467 kts 305°
2026-04-27 04:26 31.90980 68.65938 33949 ft 468 kts 305°
2026-04-27 04:27 31.95156 68.60053 33949 ft 468 kts 305°
2026-04-27 04:27 31.99324 68.54170 33948 ft 468 kts 305°
2026-04-27 04:28 32.03489 68.48283 33957 ft 468 kts 306°
2026-04-27 04:28 32.07659 68.42380 33955 ft 468 kts 306°
2026-04-27 04:29 32.11796 68.36513 33957 ft 469 kts 306°
2026-04-27 04:29 32.15971 68.30583 33963 ft 469 kts 306°
2026-04-27 04:30 32.20138 68.24657 33965 ft 468 kts 305°
2026-04-27 04:30 32.24300 68.18728 33972 ft 469 kts 306°
2026-04-27 04:31 32.28462 68.12788 33969 ft 470 kts 306°
2026-04-27 04:31 32.32632 68.06828 33965 ft 470 kts 306°
2026-04-27 04:32 32.36773 68.00901 33966 ft 470 kts 306°
2026-04-27 04:32 32.40942 67.94924 33969 ft 470 kts 306°
2026-04-27 04:33 32.45110 67.88939 33967 ft 470 kts 306°
2026-04-27 04:33 32.49263 67.82967 33970 ft 469 kts 305°
2026-04-27 04:34 32.53489 67.77046 33966 ft 470 kts 307°
2026-04-27 04:34 32.57861 67.71269 33963 ft 471 kts 308°
2026-04-27 04:35 32.62248 67.65482 33971 ft 471 kts 308°
2026-04-27 04:35 32.66601 67.59675 33991 ft 471 kts 307°
2026-04-27 04:36 32.70935 67.53857 33975 ft 470 kts 307°
2026-04-27 04:36 32.75238 67.48064 33978 ft 472 kts 307°
2026-04-27 04:37 32.79570 67.42199 33978 ft 472 kts 306°
2026-04-27 04:37 32.83767 67.36200 33995 ft 471 kts 305°
2026-04-27 04:38 32.87923 67.30170 33992 ft 470 kts 306°
2026-04-27 04:38 32.92079 67.24183 34012 ft 468 kts 306°
2026-04-27 04:39 32.96241 67.18211 34013 ft 468 kts 306°
2026-04-27 04:39 33.00410 67.12226 34035 ft 469 kts 306°
2026-04-27 04:40 33.04578 67.06231 34034 ft 469 kts 306°
2026-04-27 04:40 33.08711 67.00274 34049 ft 468 kts 306°
2026-04-27 04:41 33.12856 66.94290 34049 ft 467 kts 306°
2026-04-27 04:41 33.16993 66.88311 34059 ft 467 kts 305°
2026-04-27 04:42 33.21108 66.82352 34057 ft 468 kts 305°
2026-04-27 04:42 33.25243 66.76351 34057 ft 468 kts 304°
2026-04-27 04:43 33.29373 66.70358 34036 ft 466 kts 304°
2026-04-27 04:43 33.33491 66.64369 34043 ft 466 kts 304°
2026-04-27 04:44 33.37605 66.58375 34023 ft 466 kts 304°
2026-04-27 04:44 33.41722 66.52363 34026 ft 468 kts 304°
2026-04-27 04:45 33.45848 66.46320 34019 ft 467 kts 303°
2026-04-27 04:45 33.49945 66.40313 34014 ft 464 kts 303°
2026-04-27 04:46 33.53985 66.34343 34020 ft 464 kts 303°
2026-04-27 04:46 33.58054 66.28326 34022 ft 464 kts 303°
2026-04-27 04:47 33.62117 66.22317 34001 ft 465 kts 303°
2026-04-27 04:47 33.66216 66.16238 34027 ft 471 kts 303°
2026-04-27 04:48 33.70334 66.10139 34027 ft 470 kts 303°
2026-04-27 04:48 33.74446 66.04036 34031 ft 469 kts 303°
2026-04-27 04:49 33.78553 65.97916 34024 ft 470 kts 303°
2026-04-27 04:49 33.82633 65.91828 34046 ft 469 kts 303°
2026-04-27 04:50 33.86713 65.85738 34034 ft 465 kts 303°
2026-04-27 04:50 33.90767 65.79670 34031 ft 464 kts 303°
2026-04-27 04:51 33.94811 65.73606 34021 ft 464 kts 303°
2026-04-27 04:51 33.98856 65.67531 34027 ft 464 kts 303°
2026-04-27 04:52 34.02893 65.61456 34034 ft 464 kts 303°
2026-04-27 04:52 34.06904 65.55412 34031 ft 464 kts 302°
2026-04-27 04:53 34.10947 65.49330 34031 ft 465 kts 303°
2026-04-27 04:53 34.14988 65.43238 34028 ft 465 kts 303°
2026-04-27 04:54 34.19036 65.37130 34025 ft 464 kts 302°
2026-04-27 04:54 34.23021 65.31100 34023 ft 461 kts 302°
2026-04-27 04:55 34.27038 65.25010 34019 ft 464 kts 302°
2026-04-27 04:55 34.31065 65.18895 34018 ft 465 kts 302°
2026-04-27 04:56 34.35092 65.12773 34023 ft 465 kts 302°
2026-04-27 04:56 34.39120 65.06648 34018 ft 462 kts 302°
2026-04-27 04:57 34.43094 65.00587 34018 ft 461 kts 302°
2026-04-27 04:57 34.47082 64.94489 34021 ft 463 kts 301°
2026-04-27 04:58 34.51098 64.88332 34017 ft 466 kts 301°
2026-04-27 04:58 34.55117 64.82160 34021 ft 465 kts 301°
2026-04-27 04:59 34.59118 64.75999 34021 ft 465 kts 301°
2026-04-27 04:59 34.63095 64.69861 34003 ft 465 kts 301°
2026-04-27 05:00 34.67092 64.63684 33996 ft 464 kts 301°
2026-04-27 05:00 34.71083 64.57502 34012 ft 465 kts 301°
2026-04-27 05:01 34.75074 64.51315 34001 ft 465 kts 301°
2026-04-27 05:01 34.79069 64.45109 34007 ft 465 kts 301°
2026-04-27 05:02 34.83054 64.38909 34002 ft 465 kts 301°
2026-04-27 05:03 34.89014 64.29610 34010 ft 468 kts 301°
2026-04-27 05:03 34.93015 64.23358 34004 ft 467 kts 301°
2026-04-27 05:04 34.97009 64.17106 33999 ft 467 kts 301°
2026-04-27 05:04 35.01002 64.10842 34003 ft 467 kts 301°
2026-04-27 05:05 35.04993 64.04571 34024 ft 468 kts 301°
2026-04-27 05:05 35.08311 63.99350 34009 ft 467 kts 301°
2026-04-27 05:06 35.12294 63.93071 34010 ft 467 kts 301°
2026-04-27 05:06 35.16274 63.86782 34018 ft 467 kts 301°
2026-04-27 05:07 35.20249 63.80494 34014 ft 467 kts 301°
2026-04-27 05:07 35.24206 63.74226 34017 ft 467 kts 301°
2026-04-27 05:08 35.28170 63.67927 34016 ft 467 kts 301°
2026-04-27 05:08 35.32147 63.61614 34018 ft 468 kts 302°
2026-04-27 05:09 35.36136 63.55300 34019 ft 468 kts 302°
2026-04-27 05:09 35.40114 63.48992 34017 ft 467 kts 302°
2026-04-27 05:10 35.44073 63.42703 34014 ft 466 kts 302°
2026-04-27 05:10 35.48031 63.36402 34017 ft 467 kts 302°
2026-04-27 05:11 35.51995 63.30085 34016 ft 467 kts 302°
2026-04-27 05:11 35.55929 63.23793 34025 ft 467 kts 302°
2026-04-27 05:12 35.59888 63.17454 34018 ft 467 kts 302°
2026-04-27 05:12 35.63801 63.11088 34016 ft 466 kts 301°
2026-04-27 05:13 35.67696 63.04699 34018 ft 467 kts 301°
2026-04-27 05:13 35.71602 62.98299 34016 ft 467 kts 301°
2026-04-27 05:14 35.75486 62.91936 34016 ft 467 kts 301°
2026-04-27 05:14 35.79388 62.85536 34016 ft 467 kts 301°
2026-04-27 05:15 35.83289 62.79126 34016 ft 468 kts 301°
2026-04-27 05:15 35.87194 62.72695 34022 ft 468 kts 301°
2026-04-27 05:16 35.91101 62.66247 34014 ft 469 kts 301°
2026-04-27 05:16 35.95012 62.59783 34018 ft 469 kts 301°
2026-04-27 05:17 35.98915 62.53321 34015 ft 469 kts 301°
2026-04-27 05:17 36.02814 62.46852 34033 ft 470 kts 301°
2026-04-27 05:18 36.06715 62.40367 34016 ft 470 kts 301°
2026-04-27 05:18 36.10617 62.33869 34017 ft 470 kts 301°
2026-04-27 05:19 36.14490 62.27408 34017 ft 470 kts 301°
2026-04-27 05:19 36.18383 62.20899 34034 ft 471 kts 302°
2026-04-27 05:20 36.22283 62.14366 34020 ft 471 kts 302°
2026-04-27 05:20 36.26176 62.07834 34016 ft 471 kts 301°
2026-04-27 05:21 36.30062 62.01301 34016 ft 471 kts 301°
2026-04-27 05:21 36.33953 61.94747 34032 ft 471 kts 302°
2026-04-27 05:22 36.37833 61.88199 34016 ft 471 kts 302°
2026-04-27 05:22 36.41692 61.81672 34013 ft 472 kts 302°
2026-04-27 05:23 36.45574 61.75096 34017 ft 472 kts 302°
2026-04-27 05:23 36.49457 61.68504 34020 ft 472 kts 302°
2026-04-27 05:24 36.53328 61.61920 34015 ft 471 kts 302°
2026-04-27 05:24 36.57196 61.55330 34010 ft 471 kts 302°
2026-04-27 05:25 36.61057 61.48739 34073 ft 471 kts 302°
2026-04-27 05:25 36.62960 61.45488 34376 ft 467 kts 302°
2026-04-27 05:25 36.64852 61.42229 34695 ft 463 kts 301°
2026-04-27 05:25 36.66716 61.38961 34898 ft 462 kts 301°
2026-04-27 05:26 36.68566 61.35690 35071 ft 461 kts 301°
2026-04-27 05:26 36.70408 61.32426 35260 ft 461 kts 301°
2026-04-27 05:26 36.72253 61.29159 35415 ft 460 kts 301°
2026-04-27 05:26 36.74099 61.25896 35564 ft 460 kts 301°
2026-04-27 05:27 36.75944 61.22635 35720 ft 460 kts 301°
2026-04-27 05:27 36.77791 61.19374 35843 ft 460 kts 300°
2026-04-27 05:27 36.79636 61.16112 35973 ft 460 kts 301°
2026-04-27 05:28 36.83309 61.09619 36023 ft 450 kts 301°
2026-04-27 05:28 36.86896 61.03271 36023 ft 444 kts 300°
2026-04-27 05:29 36.90442 60.96967 36020 ft 444 kts 300°
2026-04-27 05:29 36.93972 60.90679 36027 ft 444 kts 301°
2026-04-27 05:30 36.97523 60.84347 36017 ft 445 kts 301°
2026-04-27 05:30 37.01240 60.78119 36018 ft 447 kts 304°
2026-04-27 05:31 37.05131 60.72043 36015 ft 448 kts 304°
2026-04-27 05:31 37.09012 60.65941 36023 ft 447 kts 304°
2026-04-27 05:32 37.12852 60.59810 36009 ft 447 kts 304°
2026-04-27 05:32 37.16678 60.53657 36008 ft 447 kts 303°
2026-04-27 05:33 37.20475 60.47533 36011 ft 447 kts 303°
2026-04-27 05:33 37.24294 60.41367 36009 ft 447 kts 303°
2026-04-27 05:34 37.28110 60.35198 36005 ft 447 kts 303°
2026-04-27 05:34 37.31916 60.29033 36004 ft 447 kts 303°
2026-04-27 05:35 37.35723 60.22854 35998 ft 447 kts 303°
2026-04-27 05:35 37.39527 60.16669 35998 ft 447 kts 304°
2026-04-27 05:36 37.43302 60.10518 35993 ft 447 kts 303°
2026-04-27 05:36 37.47104 60.04314 35993 ft 447 kts 303°
2026-04-27 05:37 37.50905 59.98100 35990 ft 447 kts 303°
2026-04-27 05:37 37.54695 59.91890 35988 ft 447 kts 303°
2026-04-27 05:38 37.58492 59.85660 35988 ft 448 kts 303°
2026-04-27 05:38 37.62264 59.79457 35987 ft 448 kts 303°
2026-04-27 05:39 37.66051 59.73219 35994 ft 448 kts 303°
2026-04-27 05:39 37.69836 59.66972 35985 ft 447 kts 303°
2026-04-27 05:40 37.73614 59.60726 35986 ft 447 kts 303°
2026-04-27 05:40 37.77390 59.54470 35982 ft 447 kts 303°
2026-04-27 05:41 37.81162 59.48209 35983 ft 447 kts 303°
2026-04-27 05:41 37.84928 59.41946 35981 ft 447 kts 303°
2026-04-27 05:42 37.88665 59.35661 35968 ft 446 kts 301°
2026-04-27 05:42 37.91995 59.29057 35977 ft 445 kts 298°
2026-04-27 05:43 37.95213 59.22418 35975 ft 445 kts 298°
2026-04-27 05:43 37.98431 59.15720 35973 ft 445 kts 298°
2026-04-27 05:44 38.01652 59.09013 35971 ft 445 kts 298°
2026-04-27 05:44 38.04871 59.02308 35972 ft 445 kts 298°
2026-04-27 05:45 38.08081 58.95613 35973 ft 445 kts 298°
2026-04-27 05:45 38.11320 58.88838 35966 ft 452 kts 298°
2026-04-27 05:46 38.14598 58.81968 35970 ft 458 kts 298°
2026-04-27 05:46 38.17927 58.74980 35967 ft 464 kts 298°
2026-04-27 05:47 38.21289 58.67907 35959 ft 470 kts 298°
2026-04-27 05:47 38.24660 58.60803 35961 ft 472 kts 298°
2026-04-27 05:48 38.28051 58.53642 35960 ft 472 kts 298°
2026-04-27 05:48 38.31431 58.46484 35965 ft 472 kts 298°
2026-04-27 05:49 38.34810 58.39312 35961 ft 471 kts 298°
2026-04-27 05:49 38.38179 58.32145 35961 ft 471 kts 298°
2026-04-27 05:50 38.40747 58.26042 35957 ft 470 kts 293°
2026-04-27 05:50 38.43500 58.18477 35969 ft 469 kts 292°
2026-04-27 05:51 38.46180 58.10881 35948 ft 470 kts 292°
2026-04-27 05:51 38.48851 58.03275 35965 ft 470 kts 292°
2026-04-27 05:52 38.51524 57.95667 35967 ft 470 kts 292°
2026-04-27 05:52 38.54198 57.88050 35944 ft 470 kts 292°
2026-04-27 05:53 38.56866 57.80431 35963 ft 470 kts 292°
2026-04-27 05:53 38.59528 57.72811 35946 ft 470 kts 292°
2026-04-27 05:54 38.62193 57.65161 35949 ft 470 kts 292°
2026-04-27 05:54 38.64547 57.57362 35964 ft 469 kts 288°
2026-04-27 05:55 38.66687 57.49488 35955 ft 469 kts 287°
2026-04-27 05:55 38.68847 57.41669 35960 ft 469 kts 288°
2026-04-27 05:56 38.71067 57.33808 35946 ft 469 kts 288°
2026-04-27 05:56 38.73299 57.25948 35956 ft 469 kts 288°
2026-04-27 05:57 38.75522 57.18103 35955 ft 469 kts 288°
2026-04-27 05:57 38.77740 57.10238 35949 ft 468 kts 288°
2026-04-27 05:58 38.79949 57.02380 35946 ft 469 kts 288°
2026-04-27 05:58 38.82158 56.94497 35962 ft 469 kts 288°
2026-04-27 05:59 38.84357 56.86625 35949 ft 469 kts 288°
2026-04-27 05:59 38.86552 56.78747 35946 ft 469 kts 288°
2026-04-27 06:00 38.89827 56.66943 35951 ft 470 kts 287°
2026-04-27 06:00 38.92016 56.59025 35955 ft 469 kts 287°
2026-04-27 06:01 38.94195 56.51121 35945 ft 469 kts 287°
2026-04-27 06:01 38.96369 56.43207 35946 ft 470 kts 287°
2026-04-27 06:02 38.98542 56.35274 35946 ft 470 kts 287°
2026-04-27 06:02 39.00691 56.27345 35951 ft 469 kts 286°
2026-04-27 06:03 39.02555 56.19361 35953 ft 469 kts 284°
2026-04-27 06:03 39.04328 56.11284 35952 ft 469 kts 284°
2026-04-27 06:04 39.06134 56.03200 35953 ft 469 kts 284°
2026-04-27 06:04 39.07960 55.95145 35964 ft 469 kts 284°
2026-04-27 06:05 39.09793 55.87075 35953 ft 469 kts 284°
2026-04-27 06:05 39.11616 55.79015 35954 ft 469 kts 284°
2026-04-27 06:06 39.13423 55.70994 35953 ft 469 kts 284°
2026-04-27 06:06 39.15236 55.62911 35953 ft 469 kts 284°
2026-04-27 06:07 39.17045 55.54819 35949 ft 469 kts 284°
2026-04-27 06:07 39.18846 55.46736 35949 ft 469 kts 283°
2026-04-27 06:08 39.20636 55.38644 35949 ft 469 kts 283°
2026-04-27 06:08 39.22420 55.30555 35954 ft 469 kts 283°
2026-04-27 06:09 39.24191 55.22501 35939 ft 470 kts 283°
2026-04-27 06:09 39.25969 55.14382 35949 ft 470 kts 283°
2026-04-27 06:10 39.27741 55.06266 35946 ft 470 kts 283°
2026-04-27 06:10 39.29506 54.98151 35948 ft 470 kts 283°
2026-04-27 06:11 39.31269 54.90014 35960 ft 471 kts 283°
2026-04-27 06:11 39.33028 54.81866 35958 ft 471 kts 283°
2026-04-27 06:12 39.34783 54.73708 35953 ft 471 kts 283°
2026-04-27 06:12 39.36529 54.65557 35955 ft 471 kts 283°
2026-04-27 06:13 39.38270 54.57401 35940 ft 471 kts 283°
2026-04-27 06:13 39.39995 54.49290 35960 ft 471 kts 283°
2026-04-27 06:14 39.41729 54.41103 35957 ft 471 kts 283°
2026-04-27 06:14 39.43456 54.32920 35939 ft 471 kts 283°
2026-04-27 06:15 39.45177 54.24735 35950 ft 471 kts 283°
2026-04-27 06:15 39.46891 54.16548 35948 ft 471 kts 283°
2026-04-27 06:16 39.48601 54.08354 35948 ft 472 kts 283°
2026-04-27 06:16 39.50306 54.00157 35945 ft 471 kts 283°
2026-04-27 06:17 39.51987 53.91958 35955 ft 471 kts 282°
2026-04-27 06:17 39.53647 53.83760 35944 ft 470 kts 282°
2026-04-27 06:18 39.55294 53.75615 35945 ft 470 kts 282°
2026-04-27 06:18 39.56947 53.67419 35944 ft 470 kts 282°
2026-04-27 06:19 39.58597 53.59219 35947 ft 470 kts 282°
2026-04-27 06:19 39.60230 53.51067 35942 ft 469 kts 282°
2026-04-27 06:20 39.61868 53.42861 35947 ft 469 kts 282°
2026-04-27 06:20 39.63497 53.34661 35946 ft 468 kts 282°
2026-04-27 06:21 39.65107 53.26527 35953 ft 468 kts 282°
2026-04-27 06:21 39.66732 53.18282 35951 ft 469 kts 282°
2026-04-27 06:22 39.68330 53.10144 35953 ft 469 kts 282°
2026-04-27 06:22 39.69935 53.01934 35953 ft 469 kts 282°
2026-04-27 06:23 39.71538 52.93708 35952 ft 469 kts 282°
2026-04-27 06:23 39.73133 52.85485 35949 ft 469 kts 282°
2026-04-27 06:24 39.74741 52.77266 35946 ft 470 kts 282°
2026-04-27 06:24 39.76370 52.69041 35946 ft 470 kts 282°
2026-04-27 06:25 39.77984 52.60864 35952 ft 469 kts 282°
2026-04-27 06:25 39.79594 52.52652 35955 ft 470 kts 282°
2026-04-27 06:26 39.81204 52.44398 35949 ft 470 kts 282°
2026-04-27 06:26 39.82798 52.36194 35949 ft 470 kts 282°
2026-04-27 06:27 39.84403 52.27896 35949 ft 470 kts 282°
2026-04-27 06:27 39.85992 52.19648 35957 ft 470 kts 282°
2026-04-27 06:28 39.87568 52.11434 35949 ft 470 kts 282°
2026-04-27 06:28 39.89143 52.03196 35949 ft 470 kts 282°
2026-04-27 06:29 39.90715 51.94930 35952 ft 470 kts 281°
2026-04-27 06:29 39.92285 51.86649 35968 ft 470 kts 281°
2026-04-27 06:30 39.93835 51.78430 35949 ft 470 kts 281°
2026-04-27 06:30 39.95388 51.70170 35949 ft 470 kts 281°
2026-04-27 06:31 39.96936 51.61897 35947 ft 470 kts 281°
2026-04-27 06:31 39.98481 51.53608 35946 ft 470 kts 281°
2026-04-27 06:32 40.00659 51.45546 35944 ft 473 kts 290°
2026-04-27 06:32 40.03273 51.37683 35943 ft 473 kts 291°
2026-04-27 06:33 40.05945 51.29822 35944 ft 473 kts 291°
2026-04-27 06:33 40.08593 51.22000 35941 ft 473 kts 291°
2026-04-27 06:34 40.11241 51.14127 35938 ft 473 kts 291°
2026-04-27 06:34 40.13879 51.06246 35935 ft 473 kts 291°
2026-04-27 06:35 40.16508 50.98368 35936 ft 473 kts 291°
2026-04-27 06:35 40.18691 50.91814 35937 ft 473 kts 291°
2026-04-27 06:36 40.21314 50.83921 35921 ft 472 kts 291°
2026-04-27 06:36 40.23932 50.76071 35922 ft 471 kts 291°
2026-04-27 06:37 40.26547 50.68203 35916 ft 471 kts 291°
2026-04-27 06:37 40.29157 50.60326 35911 ft 470 kts 291°
2026-04-27 06:38 40.31755 50.52465 35911 ft 470 kts 290°
2026-04-27 06:38 40.34349 50.44594 35892 ft 470 kts 290°
2026-04-27 06:39 40.36935 50.36726 35877 ft 470 kts 290°
2026-04-27 06:39 40.39518 50.28842 35868 ft 470 kts 290°
2026-04-27 06:40 40.42080 50.21001 35859 ft 470 kts 290°
2026-04-27 06:40 40.44654 50.13102 35856 ft 470 kts 290°
2026-04-27 06:41 40.47222 50.05202 35856 ft 470 kts 290°
2026-04-27 06:41 40.49829 49.97315 35857 ft 471 kts 291°
2026-04-27 06:42 40.52472 49.89442 35853 ft 470 kts 291°
2026-04-27 06:42 40.55092 49.81607 35863 ft 468 kts 291°
2026-04-27 06:43 40.57699 49.73755 35848 ft 469 kts 291°
2026-04-27 06:43 40.60304 49.65880 35839 ft 469 kts 290°
2026-04-27 06:44 40.62902 49.58006 35835 ft 469 kts 291°
2026-04-27 06:44 40.65407 49.50127 35832 ft 469 kts 289°
2026-04-27 06:45 40.67765 49.42097 35833 ft 470 kts 288°
2026-04-27 06:45 40.70119 49.34051 35841 ft 470 kts 288°
2026-04-27 06:46 40.72492 49.26020 35833 ft 470 kts 288°
2026-04-27 06:46 40.74762 49.17930 35847 ft 470 kts 285°
2026-04-27 06:47 40.76738 49.09712 35853 ft 469 kts 284°
2026-04-27 06:47 40.78691 49.01500 35859 ft 469 kts 285°
2026-04-27 06:48 40.80677 48.93344 35888 ft 468 kts 285°
2026-04-27 06:48 40.82686 48.85162 35862 ft 467 kts 285°
2026-04-27 06:49 40.84693 48.76980 35870 ft 467 kts 285°
2026-04-27 06:49 40.86687 48.68819 35877 ft 467 kts 285°
2026-04-27 06:50 40.88664 48.60689 35897 ft 467 kts 285°
2026-04-27 06:50 40.90645 48.52519 35888 ft 466 kts 285°
2026-04-27 06:51 40.92617 48.44352 35886 ft 466 kts 285°
2026-04-27 06:51 40.94583 48.36185 35901 ft 466 kts 285°
2026-04-27 06:52 40.96542 48.28013 35905 ft 466 kts 285°
2026-04-27 06:52 40.98501 48.19811 35912 ft 465 kts 284°
2026-04-27 06:53 41.00445 48.11649 35913 ft 465 kts 284°
2026-04-27 06:53 41.02372 48.03524 35930 ft 465 kts 284°
2026-04-27 06:54 41.04308 47.95336 35940 ft 465 kts 284°
2026-04-27 06:54 41.06236 47.87155 35927 ft 465 kts 284°
2026-04-27 06:55 41.08037 47.78934 35932 ft 464 kts 283°
2026-04-27 06:55 41.09756 47.70684 35935 ft 464 kts 283°
2026-04-27 06:56 41.11487 47.62428 35945 ft 464 kts 283°
2026-04-27 06:56 41.13232 47.54178 35941 ft 465 kts 283°
2026-04-27 06:57 41.14964 47.45989 35930 ft 464 kts 283°
2026-04-27 06:57 41.16698 47.37749 35937 ft 463 kts 283°
2026-04-27 06:58 41.19285 47.25386 35953 ft 463 kts 283°
2026-04-27 06:59 41.21000 47.17151 35954 ft 462 kts 282°
2026-04-27 06:59 41.22708 47.08918 35963 ft 462 kts 282°
2026-04-27 07:00 41.24412 47.00672 35966 ft 462 kts 282°
2026-04-27 07:00 41.26102 46.92469 35975 ft 462 kts 282°
2026-04-27 07:01 41.27793 46.84222 35963 ft 462 kts 282°
2026-04-27 07:01 41.29475 46.75980 35960 ft 462 kts 282°
2026-04-27 07:02 41.30930 46.67676 35959 ft 460 kts 278°
2026-04-27 07:02 41.32006 46.59274 35958 ft 461 kts 277°
2026-04-27 07:03 41.33079 46.50872 35944 ft 460 kts 277°
2026-04-27 07:03 41.34213 46.42482 35948 ft 460 kts 278°
2026-04-27 07:04 41.35371 46.34088 35945 ft 461 kts 278°
2026-04-27 07:04 41.36526 46.25705 35949 ft 460 kts 278°
2026-04-27 07:05 41.37666 46.17357 35949 ft 461 kts 278°
2026-04-27 07:05 41.38806 46.08959 35945 ft 461 kts 278°
2026-04-27 07:06 41.39940 46.00544 35941 ft 461 kts 277°
2026-04-27 07:06 41.41065 45.92143 35948 ft 461 kts 277°
2026-04-27 07:07 41.42186 45.83738 35950 ft 461 kts 278°
2026-04-27 07:07 41.43301 45.75318 35943 ft 462 kts 277°
2026-04-27 07:08 41.44413 45.66883 35943 ft 462 kts 277°
2026-04-27 07:08 41.45512 45.58490 35937 ft 462 kts 277°
2026-04-27 07:09 41.46611 45.50051 35940 ft 462 kts 277°
2026-04-27 07:09 41.47705 45.41603 35939 ft 462 kts 277°
2026-04-27 07:10 41.48762 45.33143 35945 ft 462 kts 275°
2026-04-27 07:10 41.49469 45.24639 35943 ft 461 kts 273°
2026-04-27 07:11 41.50073 45.16122 35944 ft 461 kts 273°
2026-04-27 07:11 41.50717 45.07606 35946 ft 461 kts 274°
2026-04-27 07:12 41.51387 44.99143 35961 ft 462 kts 274°
2026-04-27 07:12 41.52069 44.90601 35962 ft 463 kts 274°
2026-04-27 07:13 41.52744 44.82043 35962 ft 464 kts 274°
2026-04-27 07:13 41.53413 44.73466 35964 ft 464 kts 274°
2026-04-27 07:14 41.54075 44.64885 35962 ft 464 kts 274°
2026-04-27 07:14 41.54730 44.56298 35960 ft 464 kts 274°
2026-04-27 07:15 41.55378 44.47722 35962 ft 464 kts 274°
2026-04-27 07:15 41.56016 44.39191 35977 ft 464 kts 274°
2026-04-27 07:16 41.56651 44.30615 35977 ft 464 kts 274°
2026-04-27 07:16 41.57281 44.22038 35990 ft 464 kts 274°
2026-04-27 07:17 41.57944 44.13439 35996 ft 466 kts 274°
2026-04-27 07:17 41.58626 44.04825 36007 ft 466 kts 274°
2026-04-27 07:18 41.59299 43.96211 36020 ft 466 kts 274°
2026-04-27 07:18 41.59958 43.87607 36032 ft 466 kts 274°
2026-04-27 07:19 41.60608 43.79002 36035 ft 465 kts 274°
2026-04-27 07:19 41.61144 43.71849 36051 ft 465 kts 274°
2026-04-27 07:20 41.61887 43.61828 36050 ft 467 kts 274°
2026-04-27 07:20 41.62417 43.54598 36055 ft 467 kts 274°
2026-04-27 07:21 41.63049 43.45955 36064 ft 467 kts 274°
2026-04-27 07:21 41.63675 43.37318 36067 ft 468 kts 274°
2026-04-27 07:22 41.64290 43.28708 36062 ft 468 kts 274°
2026-04-27 07:22 41.64904 43.20043 36062 ft 468 kts 274°
2026-04-27 07:23 41.65514 43.11358 36069 ft 470 kts 274°
2026-04-27 07:23 41.66117 43.02651 36066 ft 470 kts 274°
2026-04-27 07:24 41.66714 42.93942 36065 ft 470 kts 274°
2026-04-27 07:24 41.67306 42.85227 36073 ft 470 kts 274°
2026-04-27 07:25 41.67895 42.76512 36083 ft 470 kts 274°
2026-04-27 07:25 41.68466 42.67802 36084 ft 470 kts 274°
2026-04-27 07:26 41.69031 42.59094 36100 ft 470 kts 273°
2026-04-27 07:26 41.69592 42.50376 36096 ft 471 kts 274°
2026-04-27 07:27 41.70150 42.41635 36105 ft 471 kts 274°
2026-04-27 07:27 41.70697 42.32944 36110 ft 471 kts 274°
2026-04-27 07:28 41.71242 42.24193 36120 ft 471 kts 273°
2026-04-27 07:28 41.71780 42.15444 36117 ft 471 kts 273°
2026-04-27 07:29 41.72313 42.06717 36131 ft 470 kts 274°
2026-04-27 07:29 41.72838 41.97974 36135 ft 470 kts 273°
2026-04-27 07:30 41.73346 41.89288 36141 ft 472 kts 273°
2026-04-27 07:30 41.73854 41.80507 36151 ft 472 kts 273°
2026-04-27 07:31 41.74359 41.71735 36160 ft 472 kts 273°
2026-04-27 07:31 41.74856 41.62965 36156 ft 472 kts 273°
2026-04-27 07:32 41.75347 41.54185 36155 ft 472 kts 273°
2026-04-27 07:32 41.75829 41.45457 36147 ft 472 kts 273°
2026-04-27 07:33 41.76305 41.36697 36144 ft 472 kts 273°
2026-04-27 07:33 41.76776 41.27910 36147 ft 472 kts 273°
2026-04-27 07:34 41.77241 41.19125 36138 ft 472 kts 273°
2026-04-27 07:34 41.77698 41.10342 36145 ft 472 kts 272°
2026-04-27 07:35 41.78149 41.01559 36129 ft 472 kts 272°
2026-04-27 07:35 41.78593 40.92772 36153 ft 472 kts 272°
2026-04-27 07:36 41.79028 40.84042 36139 ft 472 kts 272°
2026-04-27 07:36 41.79459 40.75246 36135 ft 472 kts 272°
2026-04-27 07:37 41.79883 40.66459 36140 ft 472 kts 272°
2026-04-27 07:37 41.80294 40.57660 36143 ft 472 kts 272°
2026-04-27 07:38 41.80669 40.48878 36136 ft 472 kts 272°
2026-04-27 07:38 41.81039 40.40076 36144 ft 472 kts 272°
2026-04-27 07:39 41.81408 40.31285 36145 ft 472 kts 272°
2026-04-27 07:39 41.81769 40.22559 36143 ft 472 kts 272°
2026-04-27 07:40 41.82128 40.13743 36144 ft 472 kts 272°
2026-04-27 07:40 41.82483 40.04964 36142 ft 472 kts 272°
2026-04-27 07:41 41.82822 39.96186 36147 ft 472 kts 272°
2026-04-27 07:41 41.83155 39.87392 36146 ft 472 kts 272°
2026-04-27 07:42 41.83483 39.78595 36149 ft 472 kts 272°
2026-04-27 07:42 41.83806 39.69799 36147 ft 472 kts 272°
2026-04-27 07:43 41.84119 39.61077 36148 ft 470 kts 272°
2026-04-27 07:43 41.84427 39.52327 36152 ft 470 kts 272°
2026-04-27 07:44 41.84734 39.43566 36161 ft 470 kts 272°
2026-04-27 07:44 41.85027 39.34803 36151 ft 470 kts 272°
2026-04-27 07:45 41.85313 39.26056 36171 ft 470 kts 272°
2026-04-27 07:45 41.85594 39.17307 36160 ft 468 kts 272°
2026-04-27 07:46 41.85868 39.08583 36161 ft 468 kts 272°
2026-04-27 07:46 41.86135 38.99862 36169 ft 468 kts 272°
2026-04-27 07:47 41.86397 38.91116 36166 ft 469 kts 271°
2026-04-27 07:47 41.86652 38.82383 36171 ft 469 kts 271°
2026-04-27 07:48 41.86900 38.73638 36169 ft 468 kts 271°
2026-04-27 07:48 41.87140 38.64963 36172 ft 468 kts 271°
2026-04-27 07:49 41.87375 38.56224 36176 ft 468 kts 271°
2026-04-27 07:49 41.87602 38.47507 36178 ft 468 kts 271°
2026-04-27 07:50 41.87823 38.38789 36177 ft 466 kts 271°
2026-04-27 07:50 41.88037 38.30099 36188 ft 464 kts 271°
2026-04-27 07:51 41.88244 38.21435 36187 ft 464 kts 271°
2026-04-27 07:51 41.88443 38.12785 36191 ft 464 kts 271°
2026-04-27 07:52 41.88637 38.04116 36197 ft 464 kts 271°
2026-04-27 07:52 41.88824 37.95473 36197 ft 463 kts 271°
2026-04-27 07:53 41.89002 37.86893 36196 ft 462 kts 271°
2026-04-27 07:53 41.89176 37.78234 36208 ft 464 kts 271°
2026-04-27 07:54 41.89344 37.69562 36214 ft 465 kts 271°
2026-04-27 07:54 41.89505 37.60894 36217 ft 464 kts 271°
2026-04-27 07:55 41.89660 37.52222 36209 ft 463 kts 271°
2026-04-27 07:55 41.89807 37.43630 36208 ft 463 kts 271°
2026-04-27 07:56 41.89948 37.34987 36217 ft 463 kts 271°
2026-04-27 07:56 41.90082 37.26367 36225 ft 463 kts 271°
2026-04-27 07:57 41.90211 37.17705 36226 ft 464 kts 271°
2026-04-27 07:57 41.90333 37.09044 36238 ft 462 kts 271°
2026-04-27 07:58 41.90505 37.00426 36236 ft 461 kts 274°
2026-04-27 07:58 41.91110 36.91860 36230 ft 461 kts 276°
2026-04-27 07:59 41.91801 36.83284 36222 ft 461 kts 275°
2026-04-27 07:59 41.92710 36.70427 36229 ft 460 kts 275°
2026-04-27 08:00 41.93270 36.61866 36219 ft 459 kts 275°
2026-04-27 08:00 41.93820 36.53347 36234 ft 461 kts 275°
2026-04-27 08:01 41.94372 36.44745 36234 ft 462 kts 275°
2026-04-27 08:01 41.94917 36.36155 36231 ft 462 kts 275°
2026-04-27 08:02 41.95458 36.27552 36243 ft 462 kts 275°
2026-04-27 08:02 41.95900 36.20418 36236 ft 462 kts 274°
2026-04-27 08:03 41.96428 36.11818 36245 ft 462 kts 274°
2026-04-27 08:03 41.96949 36.03225 36244 ft 462 kts 274°
2026-04-27 08:04 41.97464 35.94625 36238 ft 461 kts 274°
2026-04-27 08:04 41.97971 35.86048 36244 ft 460 kts 274°
2026-04-27 08:05 41.98471 35.77493 36250 ft 461 kts 274°
2026-04-27 08:05 41.98965 35.68905 36251 ft 461 kts 274°
2026-04-27 08:06 41.99454 35.60310 36240 ft 461 kts 274°
2026-04-27 08:06 41.99936 35.51718 36257 ft 460 kts 274°
2026-04-27 08:07 42.00411 35.43145 36250 ft 459 kts 274°
2026-04-27 08:07 42.00879 35.34568 36251 ft 460 kts 274°
2026-04-27 08:08 42.01341 35.25995 36255 ft 459 kts 274°
2026-04-27 08:08 42.01796 35.17424 36244 ft 460 kts 274°
2026-04-27 08:09 42.02208 35.08887 36252 ft 460 kts 271°
2026-04-27 08:09 42.01981 35.00289 36248 ft 460 kts 267°
2026-04-27 08:10 42.01586 34.91690 36254 ft 460 kts 266°
2026-04-27 08:10 42.01158 34.83138 36259 ft 460 kts 266°
2026-04-27 08:11 42.00727 34.74502 36254 ft 460 kts 266°
2026-04-27 08:11 42.00303 34.65982 36251 ft 459 kts 266°
2026-04-27 08:12 41.99872 34.57408 36254 ft 460 kts 266°
2026-04-27 08:12 41.99435 34.48828 36264 ft 460 kts 266°
2026-04-27 08:13 41.98990 34.40230 36264 ft 460 kts 266°
2026-04-27 08:13 41.98539 34.31650 36255 ft 460 kts 266°
2026-04-27 08:14 41.98081 34.23066 36261 ft 460 kts 266°
2026-04-27 08:14 41.97618 34.14502 36264 ft 459 kts 266°
2026-04-27 08:15 41.97147 34.05922 36254 ft 460 kts 266°
2026-04-27 08:15 41.96674 33.97399 36258 ft 461 kts 266°
2026-04-27 08:16 41.96190 33.88810 36265 ft 461 kts 266°
2026-04-27 08:16 41.95700 33.80237 36261 ft 460 kts 266°
2026-04-27 08:17 41.95443 33.71646 36266 ft 459 kts 274°
2026-04-27 08:17 41.96557 33.63204 36267 ft 459 kts 283°
2026-04-27 08:18 41.98128 33.54876 36268 ft 460 kts 284°
2026-04-27 08:18 41.99763 33.46563 36271 ft 459 kts 284°
2026-04-27 08:19 42.01369 33.38288 36275 ft 458 kts 284°
2026-04-27 08:19 42.02946 33.30030 36270 ft 459 kts 284°
2026-04-27 08:20 42.04523 33.21708 36288 ft 459 kts 284°
2026-04-27 08:20 42.06093 33.13383 36284 ft 458 kts 284°
2026-04-27 08:21 42.07661 33.05087 36280 ft 457 kts 284°
2026-04-27 08:21 42.09346 32.96820 36290 ft 457 kts 285°
2026-04-27 08:22 42.11062 32.88575 36290 ft 457 kts 285°
2026-04-27 08:22 42.12759 32.80311 36297 ft 456 kts 285°
2026-04-27 08:23 42.14418 32.72131 36278 ft 455 kts 285°
2026-04-27 08:23 42.16079 32.63890 36290 ft 455 kts 285°
2026-04-27 08:24 42.17734 32.55669 36294 ft 455 kts 285°
2026-04-27 08:24 42.19380 32.47415 36294 ft 455 kts 285°
2026-04-27 08:25 42.21016 32.39172 36301 ft 455 kts 284°
2026-04-27 08:25 42.22651 32.30909 36287 ft 455 kts 284°
2026-04-27 08:26 42.24267 32.22716 36283 ft 455 kts 284°
2026-04-27 08:26 42.25891 32.14466 36293 ft 453 kts 284°
2026-04-27 08:27 42.27501 32.06230 36293 ft 452 kts 284°
2026-04-27 08:27 42.29100 31.98018 36308 ft 452 kts 284°
2026-04-27 08:28 42.30685 31.89856 36312 ft 452 kts 284°
2026-04-27 08:28 42.32279 31.81624 36299 ft 451 kts 284°
2026-04-27 08:29 42.33862 31.73417 36302 ft 451 kts 284°
2026-04-27 08:29 42.35439 31.65204 36296 ft 452 kts 284°
2026-04-27 08:30 42.37018 31.56950 36311 ft 453 kts 284°
2026-04-27 08:30 42.38587 31.48713 36309 ft 452 kts 284°
2026-04-27 08:31 42.40140 31.40525 36311 ft 452 kts 284°
2026-04-27 08:31 42.41699 31.32266 36303 ft 452 kts 284°
2026-04-27 08:32 42.43250 31.24021 36319 ft 452 kts 284°
2026-04-27 08:32 42.44796 31.15762 36320 ft 452 kts 284°
2026-04-27 08:33 42.46335 31.07521 36316 ft 451 kts 284°
2026-04-27 08:33 42.47862 30.99290 36316 ft 451 kts 284°
2026-04-27 08:34 42.49380 30.91037 36320 ft 451 kts 283°
2026-04-27 08:34 42.50895 30.82782 36309 ft 451 kts 283°
2026-04-27 08:35 42.52403 30.74533 36310 ft 450 kts 283°
2026-04-27 08:35 42.53893 30.66344 36335 ft 450 kts 283°
2026-04-27 08:36 42.55390 30.58089 36334 ft 450 kts 283°
2026-04-27 08:36 42.56877 30.49846 36324 ft 450 kts 283°
2026-04-27 08:37 42.58359 30.41598 36324 ft 449 kts 283°
2026-04-27 08:37 42.59834 30.33353 36322 ft 449 kts 283°
2026-04-27 08:38 42.61536 30.25191 36323 ft 450 kts 290°
2026-04-27 08:38 42.63876 30.17364 36328 ft 450 kts 291°
2026-04-27 08:39 42.66318 30.09548 36330 ft 450 kts 291°
2026-04-27 08:39 42.68771 30.01715 36332 ft 450 kts 291°
2026-04-27 08:40 42.71206 29.93883 36337 ft 450 kts 291°
2026-04-27 08:40 42.73625 29.86055 36337 ft 449 kts 291°
2026-04-27 08:41 42.76041 29.78211 36338 ft 449 kts 291°
2026-04-27 08:41 42.78452 29.70361 36341 ft 449 kts 291°
2026-04-27 08:42 42.80858 29.62503 36340 ft 449 kts 291°
2026-04-27 08:42 42.82044 29.58621 35658 ft 448 kts 292°
2026-04-27 08:42 42.83228 29.54740 35923 ft 442 kts 292°
2026-04-27 08:43 42.85577 29.47023 36005 ft 441 kts 292°
2026-04-27 08:43 42.87929 29.39274 36000 ft 443 kts 292°
2026-04-27 08:44 42.90283 29.31494 36000 ft 444 kts 292°
2026-04-27 08:44 42.92639 29.23684 36000 ft 445 kts 292°
2026-04-27 08:45 42.94989 29.15872 36000 ft 446 kts 292°
2026-04-27 08:45 42.97329 29.08068 36000 ft 447 kts 292°
2026-04-27 08:46 42.99686 29.00183 36000 ft 448 kts 292°
2026-04-27 08:46 43.02040 28.92286 36000 ft 449 kts 291°
2026-04-27 08:47 43.04396 28.84357 36000 ft 450 kts 291°
2026-04-27 08:47 43.07307 28.76789 36003 ft 451 kts 304°
2026-04-27 08:48 43.10941 28.69756 36000 ft 452 kts 306°
2026-04-27 08:48 43.14044 28.63988 36000 ft 453 kts 306°
2026-04-27 08:49 43.18409 28.55891 36000 ft 455 kts 306°
2026-04-27 08:49 43.22159 28.48882 36000 ft 456 kts 306°
2026-04-27 08:50 43.25273 28.43032 36000 ft 456 kts 306°
2026-04-27 08:50 43.29017 28.35977 36000 ft 458 kts 306°
2026-04-27 08:51 43.32766 28.28898 36000 ft 459 kts 306°
2026-04-27 08:51 43.34643 28.25349 36746 ft 460 kts 304°
2026-04-27 08:51 43.36530 28.21775 36490 ft 460 kts 303°
2026-04-27 08:52 43.38393 28.18243 36330 ft 452 kts 303°
2026-04-27 08:52 43.40208 28.14802 36321 ft 449 kts 303°
2026-04-27 08:52 43.43865 28.07849 36332 ft 448 kts 303°
2026-04-27 08:53 43.47513 28.00892 36334 ft 448 kts 303°
2026-04-27 08:53 43.51159 27.93926 36337 ft 448 kts 303°
2026-04-27 08:54 43.54797 27.86958 36333 ft 448 kts 303°
2026-04-27 08:54 43.58433 27.79978 36330 ft 448 kts 303°
2026-04-27 08:55 43.62065 27.72989 36330 ft 448 kts 303°
2026-04-27 08:55 43.65693 27.65992 36331 ft 448 kts 303°